Terminal Aerodrome Forecast
Issued by NWS Austin/San Antonio, TX

Home | Current Version | Previous Version | Text Only | Print | Product List | Glossary On
Versions: 1 2 3 4 5 6 7 8 9 10 11 12 13 14 15 16 17 18 19
000
FTUS44 KEWX 190500
TAFDRT
TAF
KDRT 190524Z 1906/2006 12009KT P6SM BKN060 BKN250
     FM190900 11010KT P6SM BKN015
     FM191700 13015KT P6SM OVC025
     FM191800 13013KT P6SM OVC045=

USA.gov is the U.S. government's official web portal to all federal, state and local government web resources and services.